Regional Weather Roundup
Issued by NWS Newport/Morehead, NC

Current Version | Previous Version | Text Only | Print | Product List | Glossary On
Versions: 1 2 3 4 5 6 7 8 9 10 11 12 13 14 15 16 17 18 19 20 21 22 23 24 25 26 27 28 29 30 31 32 33 34 35 36 37 38 39 40 41 42 43 44 45 46 47 48 49 50
000
ASUS42 KMHX 270112
RWRMHX
WEATHER ROUNDUP FOR EASTERN NORTH CAROLINA
NATIONAL WEATHER SERVICE NEWPORT/MOREHEAD CITY NC
900 PM EDT THU MAR 26 2015

NOTE: "FAIR" INDICATES FEW OR NO CLOUDS BELOW 12,000 FEET
WITH NO SIGNIFICANT WEATHER AND/OR OBSTRUCTIONS TO VISIBILITY

NCZ015>017-031-032-045>047-102-103-270200-
NORTH COAST

CITY           SKY/WX    TMP DP  RH WIND       PRES   REMARKS
EDENTON        CLOUDY    66  57  73 S13       29.76R
ELIZABETH CITY CLOUDY    66  57  72 S12       29.75R
KITTY HAWK     CLOUDY    63  57  82 SW9G16    29.77R
MANTEO         CLOUDY    61  57  88 SW20      29.79R

$$

NCZ045>047-081-094-103-104-270200-
CENTRAL COAST

CITY           SKY/WX    TMP DP  RH WIND       PRES   REMARKS
FRISCO         CLOUDY    65  59  81 SW13G22   29.83F
SWANQUARTER      N/A     61 N/A N/A S14G21    29.77S

$$

NCZ095-097-098-100-101-270200-
SOUTHERN COAST

CITY           SKY/WX    TMP DP  RH WIND       PRES   REMARKS
BEAUFORT       CLOUDY    63  61  93 S14       29.83R
CEDAR ISLAND     N/A     66 N/A N/A S13       29.85S
JACKSONVILLE   CLOUDY    65  58  78 S10       29.82R
PINEY ISLAND   CLOUDY   N/A N/A N/A S13       29.82S
WILMINGTON     CLOUDY    66  57  72 SW10      29.83R


$$

NCZ011>013-027>030-043-044-078>080-089-090>093-098-270200-
COASTAL PLAIN

CITY           SKY/WX    TMP DP  RH WIND       PRES   REMARKS
AHOSKIE        CLOUDY    64  56  73 S6        29.73S
CLINTON        CLOUDY    67  61  81 S5        29.78S
ELIZABETHTOWN  MOCLDY    67  60  78 S6        29.79S
GOLDSBORO      CLEAR     68  68  98 S8        29.75R
GREENVILLE     CLOUDY    68  57  68 S10       29.78S
HAVELOCK       CLOUDY    64  58  80 S12G18    29.83R
KENANSVILLE    CLOUDY    67  59  74 S3        29.80R
KINSTON        CLOUDY    68  59  73 S12       29.79R
NEW BERN       CLOUDY    67  58  72 S9        29.81R
RICHLANDS      CLOUDY    66  55  68 S12G18    29.81R
ROCKY MOUNT    CLOUDY    69  57  65 S9        29.74S
WASHINGTON     CLOUDY    67  57  71 S6        29.78R
WHITEVILLE     MOCLDY    66  59  77 S7        29.80S

$$

AMZ130-135-150-152-154-156-158-170-250-252-270-ANZ085-086-088-633-658-670-270200-
MARINE OBSERVATIONS

STATION/POSITION TIME  TEMP    WIND        PRES    WAVE   SWELL
                       AIR SEA DIR/SP/G            HT/PER HT/PER
                 (UTC) (F)     (DEG/KT/KT) (MB)    (FT/S) (FT/S)
CHESAPEAKE LIGHT 0000   53     180/ 24/ 26 1006.2
64 E VA BEACH    0050   59 51  200/ 21/ 25 1007.6   10/ 9
DUCK             0000   64 41  190/ 14/ 20 1006.6
2 E DUCK         0011      42                N/A     5/ 9   2/11
10 NE DUCK       NOT AVBL
OREGON INLET     0000   61 59  190/ 22/ 26 1008.5
HATTERAS CG      0000   67 59  200/ 13/ 21 1010.5
CAPE LOOKOUT     0100   64     180/ 15/ 16 1009.8
BEAUFORT LAB     0000   62 58  200/ 11/ 12 1008.9
27 SE WRIGHTSVLE 0000   64 64  200/ 14/ 17 1012.1
5 SE WRIGHTSVLE  0000   60 56  210/ 10/ 14 1010.0
225 S CAPE HAT   0050   71 69  180/ 17/ 21 1015.5    7/ 7   2/14
41 SE CHARLESTON 0050   70 70  200/ 14/ 16 1010.3    6/ 8   5/ 8

$$


USA.gov is the U.S. government's official web portal to all federal, state and local government web resources and services.